Location: Bakov nad Jizerou
(50.4784°N, 14.9394°E)
Time: 22:06:37
(UTC+00:00)

IRIDIUM 33 DEB - Pass Details

Date: 05 February 2022
Orbit: 575 x 614 km, 86.4° (Epoch: 21 May)

Event Time Altitude Azimuth Distance (km) Brightness Sun altitude
Rises 18:21:23 0° 348° (NNW) 2,932 ? -22.7°
Reaches altitude 10° 18:23:48 10° 340° (NNW) 1,992 ? -23.1°
Maximum altitude 18:27:44 33° 276° (W) 1,013 ? -23.7°
Drops below altitude 10° 18:31:29 10° 212° (SSW) 1,909 ? -24.3°
Sets 18:33:46 0° 202° (SSW) 2,791 ? -24.7°
